Time,TemperatureF,DewpointF,PressureIn,WindDirection,WindDirectionDegrees,WindSpeedMPH,WindSpeedGustMPH,Humidity,HourlyPrecipIn,Conditions,Clouds,dailyrainin,SoftwareType,DateUTC
2013-04-11 00:00:00,66.7,58.2,29.53,SSW,202,0.0,0.7,74,0.00,,,0.00,WUHU21623XXSP,2013-04-11 04:00:00,
2013-04-11 00:05:00,66.6,58.4,29.53,South,180,0.0,4.9,75,0.00,,,0.00,WUHU21623XXSP,2013-04-11 04:05:00,
2013-04-11 00:10:00,66.6,58.4,29.53,SW,225,0.0,4.7,75,0.00,,,0.00,WUHU21623XXSP,2013-04-11 04:10:00,
2013-04-11 00:15:00,66.4,58.6,29.53,South,180,0.0,4.7,76,0.00,,,0.00,WUHU21623XXSP,2013-04-11 04:15:00,
2013-04-11 00:20:00,66.2,58.4,29.53,SW,225,0.0,2.0,76,0.00,,,0.00,WUHU21623XXSP,2013-04-11 04:20:00,
2013-04-11 00:25:00,66.0,58.6,29.53,SW,225,0.0,4.0,77,0.00,,,0.00,WUHU21623XXSP,2013-04-11 04:25:00,
2013-04-11 00:30:00,66.0,58.6,29.53,SE,135,0.0,4.0,77,0.00,,,0.00,WUHU21623XXSP,2013-04-11 04:30:00,
2013-04-11 00:35:00,66.0,59.0,29.53,SSW,202,0.0,3.4,78,0.00,,,0.00,WUHU21623XXSP,2013-04-11 04:35:00,
2013-04-11 00:40:00,65.7,59.0,29.53,SE,135,0.0,0.0,79,0.00,,,0.00,WUHU21623XXSP,2013-04-11 04:40:00,
2013-04-11 00:45:00,65.5,58.8,29.53,SE,135,0.0,1.6,79,0.00,,,0.00,WUHU21623XXSP,2013-04-11 04:45:00,
2013-04-11 00:50:00,65.3,58.6,29.53,SW,225,0.0,1.6,79,0.00,,,0.00,WUHU21623XXSP,2013-04-11 04:50:00,
2013-04-11 00:55:00,65.1,58.8,29.53,South,180,0.0,0.9,80,0.00,,,0.00,WUHU21623XXSP,2013-04-11 04:55:00,
2013-04-11 01:00:00,65.1,58.8,29.53,South,180,0.0,0.9,80,0.00,,,0.00,WUHU21623XXSP,2013-04-11 05:00:00,
2013-04-11 01:05:00,64.9,59.0,29.53,SW,225,0.0,1.6,81,0.00,,,0.00,WUHU21623XXSP,2013-04-11 05:05:00,
2013-04-11 01:10:00,64.9,59.0,29.53,South,180,0.0,1.6,81,0.00,,,0.00,WUHU21623XXSP,2013-04-11 05:10:00,
2013-04-11 01:15:00,64.8,58.8,29.53,SW,225,0.0,1.6,81,0.00,,,0.00,WUHU21623XXSP,2013-04-11 05:15:00,
2013-04-11 01:20:00,64.6,58.9,29.53,SSW,202,0.0,1.6,82,0.00,,,0.00,WUHU21623XXSP,2013-04-11 05:20:00,
2013-04-11 01:25:00,64.6,58.9,29.53,SE,135,0.0,2.0,82,0.00,,,0.00,WUHU21623XXSP,2013-04-11 05:25:00,
2013-04-11 01:30:00,64.6,58.9,29.53,South,180,0.0,2.0,82,0.00,,,0.00,WUHU21623XXSP,2013-04-11 05:30:00,
2013-04-11 01:35:00,64.6,59.3,29.53,SE,135,0.0,0.0,83,0.00,,,0.00,WUHU21623XXSP,2013-04-11 05:35:00,
2013-04-11 01:40:00,64.4,59.1,29.53,SSW,202,0.0,0.0,83,0.00,,,0.00,WUHU21623XXSP,2013-04-11 05:40:00,
2013-04-11 01:45:00,64.2,58.9,29.52,SE,135,0.0,2.5,83,0.00,,,0.00,WUHU21623XXSP,2013-04-11 05:45:00,
2013-04-11 01:51:00,64.2,58.9,29.52,SSW,202,0.0,2.5,83,0.00,,,0.00,WUHU21623XXSP,2013-04-11 05:51:00,
2013-04-11 01:56:00,64.2,59.3,29.52,SE,135,0.0,2.0,84,0.00,,,0.00,WUHU21623XXSP,2013-04-11 05:56:00,
2013-04-11 02:01:00,64.0,59.1,29.52,South,180,0.0,2.0,84,0.00,,,0.00,WUHU21623XXSP,2013-04-11 06:01:00,
2013-04-11 02:06:00,64.0,59.1,29.52,South,180,0.0,0.0,84,0.00,,,0.00,WUHU21623XXSP,2013-04-11 06:06:00,
2013-04-11 02:11:00,63.7,58.7,29.53,SE,135,0.0,0.0,84,0.00,,,0.00,WUHU21623XXSP,2013-04-11 06:11:00,
2013-04-11 02:16:00,63.7,59.1,29.52,SW,225,0.0,0.0,85,0.00,,,0.00,WUHU21623XXSP,2013-04-11 06:16:00,
2013-04-11 02:21:00,63.5,58.9,29.53,SW,225,1.6,1.6,85,0.00,,,0.00,WUHU21623XXSP,2013-04-11 06:21:00,
2013-04-11 02:26:00,63.3,59.1,29.53,SSW,202,0.0,1.6,86,0.00,,,0.00,WUHU21623XXSP,2013-04-11 06:26:00,
2013-04-11 02:31:00,63.3,59.1,29.53,SSW,202,0.0,0.0,86,0.00,,,0.00,WUHU21623XXSP,2013-04-11 06:31:00,
2013-04-11 02:36:00,63.1,58.9,29.53,SW,225,0.0,0.0,86,0.00,,,0.00,WUHU21623XXSP,2013-04-11 06:36:00,
2013-04-11 02:41:00,63.1,58.9,29.52,ESE,112,0.0,0.0,86,0.00,,,0.00,WUHU21623XXSP,2013-04-11 06:41:00,
2013-04-11 02:46:00,63.0,58.7,29.52,SSW,202,0.0,0.0,86,0.00,,,0.00,WUHU21623XXSP,2013-04-11 06:46:00,
2013-04-11 02:51:00,62.8,58.9,29.52,SSW,202,0.0,0.0,87,0.00,,,0.00,WUHU21623XXSP,2013-04-11 06:51:00,
2013-04-11 02:56:00,62.8,58.9,29.52,South,180,0.0,0.0,87,0.00,,,0.00,WUHU21623XXSP,2013-04-11 06:56:00,
2013-04-11 03:01:00,62.6,58.7,29.52,South,180,0.0,0.0,87,0.00,,,0.00,WUHU21623XXSP,2013-04-11 07:01:00,
2013-04-11 03:06:00,62.4,58.5,29.52,South,180,0.0,0.0,87,0.00,,,0.00,WUHU21623XXSP,2013-04-11 07:06:00,
2013-04-11 03:11:00,62.4,58.9,29.52,South,180,0.0,0.0,88,0.00,,,0.00,WUHU21623XXSP,2013-04-11 07:11:00,
2013-04-11 03:16:00,62.4,58.9,29.52,WSW,247,0.0,0.0,88,0.00,,,0.00,WUHU21623XXSP,2013-04-11 07:16:00,
2013-04-11 03:23:00,62.2,58.7,29.51,South,180,0.0,0.0,88,0.00,,,0.00,WUHU21623XXSP,2013-04-11 07:23:00,
2013-04-11 03:28:00,62.2,58.7,29.51,SE,135,0.0,0.0,88,0.00,,,0.00,WUHU21623XXSP,2013-04-11 07:28:00,
2013-04-11 03:33:00,62.2,58.7,29.51,SE,135,0.0,0.0,88,0.00,,,0.00,WUHU21623XXSP,2013-04-11 07:33:00,
2013-04-11 03:38:00,62.1,58.5,29.51,SSE,157,0.0,0.0,88,0.00,,,0.00,WUHU21623XXSP,2013-04-11 07:38:00,
2013-04-11 03:43:00,62.1,58.8,29.51,South,180,0.0,0.0,89,0.00,,,0.00,WUHU21623XXSP,2013-04-11 07:43:00,
2013-04-11 03:48:00,62.1,58.8,29.51,South,180,0.0,0.0,89,0.00,,,0.00,WUHU21623XXSP,2013-04-11 07:48:00,
2013-04-11 03:53:00,61.9,58.7,29.51,South,180,0.0,0.0,89,0.00,,,0.00,WUHU21623XXSP,2013-04-11 07:53:00,
2013-04-11 03:58:00,61.9,58.7,29.51,South,180,0.0,0.0,89,0.00,,,0.00,WUHU21623XXSP,2013-04-11 07:58:00,
2013-04-11 04:03:00,61.9,59.0,29.51,SSE,157,0.0,0.0,90,0.00,,,0.00,WUHU21623XXSP,2013-04-11 08:03:00,
2013-04-11 04:09:00,62.1,59.2,29.51,South,180,0.0,0.0,90,0.00,,,0.00,WUHU21623XXSP,2013-04-11 08:09:00,
2013-04-11 04:14:00,62.4,59.5,29.51,SSE,157,0.0,0.0,90,0.00,,,0.00,WUHU21623XXSP,2013-04-11 08:14:00,
2013-04-11 04:19:00,62.4,59.5,29.50,South,180,0.0,1.8,90,0.00,,,0.00,WUHU21623XXSP,2013-04-11 08:19:00,
2013-04-11 04:24:00,62.4,59.5,29.50,South,180,0.0,1.8,90,0.00,,,0.00,WUHU21623XXSP,2013-04-11 08:24:00,
2013-04-11 04:29:00,62.4,59.5,29.50,SE,135,0.0,3.6,90,0.00,,,0.00,WUHU21623XXSP,2013-04-11 08:29:00,
2013-04-11 04:34:00,62.2,59.4,29.50,SW,225,2.7,3.6,90,0.00,,,0.00,WUHU21623XXSP,2013-04-11 08:34:00,
2013-04-11 04:39:00,62.2,59.4,29.50,South,180,0.0,2.7,90,0.00,,,0.00,WUHU21623XXSP,2013-04-11 08:39:00,
2013-04-11 04:44:00,61.9,59.0,29.50,SE,135,0.0,2.7,90,0.00,,,0.00,WUHU21623XXSP,2013-04-11 08:44:00,
2013-04-11 04:49:00,61.7,58.8,29.50,SSE,157,0.0,0.0,90,0.00,,,0.00,WUHU21623XXSP,2013-04-11 08:49:00,
2013-04-11 04:54:00,61.5,58.6,29.50,SSE,157,0.0,0.0,90,0.00,,,0.00,WUHU21623XXSP,2013-04-11 08:54:00,
2013-04-11 04:59:00,61.3,58.5,29.51,SSE,157,0.0,0.0,90,0.00,,,0.00,WUHU21623XXSP,2013-04-11 08:59:00,
2013-04-11 05:04:00,61.3,58.5,29.51,SSE,157,0.0,0.0,90,0.00,,,0.00,WUHU21623XXSP,2013-04-11 09:04:00,
2013-04-11 05:09:00,61.3,58.5,29.50,SSE,157,0.0,0.0,90,0.00,,,0.00,WUHU21623XXSP,2013-04-11 09:09:00,
2013-04-11 05:15:00,61.5,58.9,29.51,SSE,157,0.0,0.0,91,0.00,,,0.00,WUHU21623XXSP,2013-04-11 09:15:00,
2013-04-11 05:20:00,61.7,59.1,29.50,SE,135,0.0,0.0,91,0.00,,,0.00,WUHU21623XXSP,2013-04-11 09:20:00,
2013-04-11 05:25:00,61.7,59.1,29.51,SW,225,0.0,0.7,91,0.00,,,0.00,WUHU21623XXSP,2013-04-11 09:25:00,
2013-04-11 05:30:00,61.7,59.1,29.51,SSW,202,0.0,0.7,91,0.00,,,0.00,WUHU21623XXSP,2013-04-11 09:30:00,
2013-04-11 05:35:00,61.5,58.9,29.51,SSW,202,0.0,0.0,91,0.00,,,0.00,WUHU21623XXSP,2013-04-11 09:35:00,
2013-04-11 05:40:00,61.5,58.9,29.51,SSW,202,0.0,0.0,91,0.00,,,0.00,WUHU21623XXSP,2013-04-11 09:40:00,
2013-04-11 05:45:00,61.5,58.9,29.51,SSE,157,0.0,0.0,91,0.00,,,0.00,WUHU21623XXSP,2013-04-11 09:45:00,
2013-04-11 05:50:00,61.5,58.9,29.50,SSE,157,0.0,0.0,91,0.00,,,0.00,WUHU21623XXSP,2013-04-11 09:50:00,
2013-04-11 05:55:00,61.7,59.1,29.50,SSE,157,0.0,0.0,91,0.00,,,0.00,WUHU21623XXSP,2013-04-11 09:55:00,
2013-04-11 06:00:00,62.1,59.5,29.51,South,180,0.0,1.6,91,0.00,,,0.00,WUHU21623XXSP,2013-04-11 10:00:00,
2013-04-11 06:05:00,62.4,59.8,29.51,SW,225,0.0,1.6,91,0.00,,,0.00,WUHU21623XXSP,2013-04-11 10:05:00,
2013-04-11 06:10:00,62.8,59.9,29.51,South,180,0.0,0.0,90,0.00,,,0.00,WUHU21623XXSP,2013-04-11 10:10:00,
2013-04-11 06:15:00,63.0,60.1,29.50,SE,135,0.0,0.0,90,0.00,,,0.00,WUHU21623XXSP,2013-04-11 10:15:00,
2013-04-11 06:20:00,63.1,60.3,29.50,SSE,157,0.0,1.3,90,0.00,,,0.00,WUHU21623XXSP,2013-04-11 10:20:00,
2013-04-11 06:25:00,63.3,60.4,29.51,WSW,247,0.0,1.3,90,0.00,,,0.00,WUHU21623XXSP,2013-04-11 10:25:00,
2013-04-11 06:30:00,63.3,60.4,29.51,SE,135,0.0,2.7,90,0.00,,,0.00,WUHU21623XXSP,2013-04-11 10:30:00,
2013-04-11 06:35:00,63.3,60.4,29.51,South,180,0.0,2.7,90,0.00,,,0.00,WUHU21623XXSP,2013-04-11 10:35:00,
2013-04-11 06:40:00,63.5,60.6,29.51,South,180,0.0,0.0,90,0.00,,,0.00,WUHU21623XXSP,2013-04-11 10:40:00,
2013-04-11 06:45:00,63.5,60.6,29.51,SW,225,0.0,0.0,90,0.00,,,0.00,WUHU21623XXSP,2013-04-11 10:45:00,
2013-04-11 06:50:00,63.5,60.6,29.51,South,180,0.0,0.0,90,0.00,,,0.00,WUHU21623XXSP,2013-04-11 10:50:00,
2013-04-11 06:55:00,63.5,60.6,29.51,SSW,202,0.0,0.0,90,0.00,,,0.00,WUHU21623XXSP,2013-04-11 10:55:00,
2013-04-11 07:00:00,63.5,60.6,29.51,SSE,157,0.0,0.0,90,0.00,,,0.00,WUHU21623XXSP,2013-04-11 11:00:00,
2013-04-11 07:05:00,63.7,60.8,29.51,SSE,157,0.0,0.0,90,0.00,,,0.00,WUHU21623XXSP,2013-04-11 11:05:00,
2013-04-11 07:10:00,63.7,60.8,29.52,South,180,0.0,0.0,90,0.00,,,0.00,WUHU21623XXSP,2013-04-11 11:10:00,
2013-04-11 07:15:00,63.5,60.6,29.52,South,180,0.0,0.0,90,0.00,,,0.00,WUHU21623XXSP,2013-04-11 11:15:00,
2013-04-11 07:20:00,63.7,60.8,29.52,South,180,0.0,0.0,90,0.00,,,0.00,WUHU21623XXSP,2013-04-11 11:20:00,
2013-04-11 07:25:00,63.7,60.8,29.52,SSW,202,0.0,0.0,90,0.00,,,0.00,WUHU21623XXSP,2013-04-11 11:25:00,
2013-04-11 07:30:00,63.7,60.8,29.52,ESE,112,0.0,0.0,90,0.00,,,0.00,WUHU21623XXSP,2013-04-11 11:30:00,
2013-04-11 07:35:00,63.7,60.8,29.52,SSW,202,0.0,0.0,90,0.00,,,0.00,WUHU21623XXSP,2013-04-11 11:35:00,
2013-04-11 07:40:00,64.0,61.2,29.52,SW,225,0.0,0.0,90,0.00,,,0.00,WUHU21623XXSP,2013-04-11 11:40:00,
2013-04-11 07:45:00,64.0,61.2,29.52,SW,225,0.0,1.1,90,0.00,,,0.00,WUHU21623XXSP,2013-04-11 11:45:00,
2013-04-11 07:50:00,64.2,61.3,29.52,SW,225,0.0,2.2,90,0.00,,,0.00,WUHU21623XXSP,2013-04-11 11:50:00,
2013-04-11 07:55:00,64.2,61.3,29.52,South,180,0.0,2.2,90,0.00,,,0.00,WUHU21623XXSP,2013-04-11 11:55:00,
2013-04-11 08:00:00,64.6,61.7,29.52,SW,225,0.0,0.0,90,0.00,,,0.00,WUHU21623XXSP,2013-04-11 12:00:00,
2013-04-11 08:05:00,64.8,61.8,29.52,SSW,202,0.0,0.0,90,0.00,,,0.00,WUHU21623XXSP,2013-04-11 12:05:00,
2013-04-11 08:10:00,65.1,62.2,29.52,SSW,202,0.0,0.0,90,0.00,,,0.00,WUHU21623XXSP,2013-04-11 12:10:00,
2013-04-11 08:15:00,65.5,62.5,29.52,SSE,157,0.0,0.0,90,0.00,,,0.00,WUHU21623XXSP,2013-04-11 12:15:00,
2013-04-11 08:20:00,65.8,62.8,29.52,SSE,157,0.0,0.0,90,0.00,,,0.00,WUHU21623XXSP,2013-04-11 12:20:00,
2013-04-11 08:25:00,66.0,63.0,29.53,SW,225,0.0,0.0,90,0.00,,,0.00,WUHU21623XXSP,2013-04-11 12:25:00,
2013-04-11 08:30:00,66.4,63.6,29.53,WSW,247,0.0,0.0,91,0.00,,,0.00,WUHU21623XXSP,2013-04-11 12:30:00,
2013-04-11 08:36:00,66.7,64.0,29.52,WSW,247,0.0,0.0,91,0.00,,,0.00,WUHU21623XXSP,2013-04-11 12:36:00,
2013-04-11 08:41:00,67.3,64.5,29.53,SW,225,0.0,0.0,91,0.00,,,0.00,WUHU21623XXSP,2013-04-11 12:41:00,
2013-04-11 08:46:00,67.6,64.6,29.53,SW,225,0.0,0.0,90,0.00,,,0.00,WUHU21623XXSP,2013-04-11 12:46:00,
2013-04-11 08:51:00,67.6,64.6,29.53,ESE,112,0.0,0.0,90,0.00,,,0.00,WUHU21623XXSP,2013-04-11 12:51:00,
2013-04-11 08:56:00,67.6,64.3,29.53,SW,225,0.0,1.6,89,0.00,,,0.00,WUHU21623XXSP,2013-04-11 12:56:00,
2013-04-11 09:01:00,67.6,64.3,29.53,SSW,202,0.0,1.6,89,0.00,,,0.00,WUHU21623XXSP,2013-04-11 13:01:00,
2013-04-11 09:06:00,67.6,64.3,29.53,SW,225,0.0,2.2,89,0.00,,,0.00,WUHU21623XXSP,2013-04-11 13:06:00,
2013-04-11 09:12:00,67.3,63.9,29.53,SSW,202,0.0,2.2,89,0.00,,,0.00,WUHU21623XXSP,2013-04-11 13:12:00,
2013-04-11 09:17:00,67.6,64.3,29.53,SSW,202,0.0,0.0,89,0.00,,,0.00,WUHU21623XXSP,2013-04-11 13:17:00,
2013-04-11 09:22:00,68.2,64.8,29.53,South,180,0.0,0.0,89,0.00,,,0.00,WUHU21623XXSP,2013-04-11 13:22:00,
2013-04-11 09:27:00,68.7,65.3,29.53,SSW,202,0.0,0.0,89,0.00,,,0.00,WUHU21623XXSP,2013-04-11 13:27:00,
2013-04-11 09:32:00,69.6,65.9,29.53,SSW,202,0.0,0.0,88,0.00,,,0.00,WUHU21623XXSP,2013-04-11 13:32:00,
2013-04-11 09:37:00,69.8,65.7,29.53,SSW,202,0.0,0.0,87,0.00,,,0.00,WUHU21623XXSP,2013-04-11 13:37:00,
2013-04-11 09:42:00,70.3,65.9,29.53,SSW,202,0.0,0.0,86,0.00,,,0.00,WUHU21623XXSP,2013-04-11 13:42:00,
2013-04-11 09:47:00,70.7,65.9,29.53,SSE,157,0.0,0.0,85,0.00,,,0.00,WUHU21623XXSP,2013-04-11 13:47:00,
2013-04-11 09:52:00,71.2,66.1,29.53,South,180,0.0,0.0,84,0.00,,,0.00,WUHU21623XXSP,2013-04-11 13:52:00,
2013-04-11 09:57:00,71.8,66.3,29.53,South,180,0.0,0.0,83,0.00,,,0.00,WUHU21623XXSP,2013-04-11 13:57:00,
2013-04-11 10:02:00,72.5,66.7,29.53,South,180,0.0,0.0,82,0.00,,,0.00,WUHU21623XXSP,2013-04-11 14:02:00,
2013-04-11 10:07:00,73.0,66.9,29.52,SSW,202,0.0,0.0,81,0.00,,,0.00,WUHU21623XXSP,2013-04-11 14:07:00,
2013-04-11 10:12:00,73.6,67.1,29.52,SE,135,0.0,0.0,80,0.00,,,0.00,WUHU21623XXSP,2013-04-11 14:12:00,
2013-04-11 10:17:00,73.8,66.9,29.53,SSW,202,0.0,0.0,79,0.00,,,0.00,WUHU21623XXSP,2013-04-11 14:17:00,
2013-04-11 10:22:00,74.8,67.7,29.52,SSW,202,0.0,0.0,78,0.00,,,0.00,WUHU21623XXSP,2013-04-11 14:22:00,
2013-04-11 10:27:00,76.1,68.0,29.52,SW,225,0.0,0.0,76,0.00,,,0.00,WUHU21623XXSP,2013-04-11 14:27:00,
2013-04-11 10:32:00,77.4,68.8,29.53,SSW,202,0.0,0.0,75,0.00,,,0.00,WUHU21623XXSP,2013-04-11 14:32:00,
2013-04-11 10:37:00,79.0,69.2,29.53,SW,225,0.0,0.0,72,0.00,,,0.00,WUHU21623XXSP,2013-04-11 14:37:00,
2013-04-11 10:43:00,79.3,69.1,29.52,SW,225,0.0,0.0,71,0.00,,,0.00,WUHU21623XXSP,2013-04-11 14:43:00,
2013-04-11 10:48:00,79.3,68.3,29.52,WSW,247,0.0,2.2,69,0.00,,,0.00,WUHU21623XXSP,2013-04-11 14:48:00,
2013-04-11 10:53:00,79.9,68.8,29.52,SW,225,0.0,4.3,69,0.00,,,0.00,WUHU21623XXSP,2013-04-11 14:53:00,
2013-04-11 10:58:00,81.3,69.3,29.52,South,180,0.0,5.4,67,0.00,,,0.00,WUHU21623XXSP,2013-04-11 14:58:00,
2013-04-11 11:03:00,82.6,69.1,29.52,SE,135,0.0,5.4,64,0.00,,,0.00,WUHU21623XXSP,2013-04-11 15:03:00,
2013-04-11 11:08:00,82.9,69.0,29.52,SE,135,0.0,4.0,63,0.00,,,0.00,WUHU21623XXSP,2013-04-11 15:08:00,
2013-04-11 11:13:00,83.5,69.5,29.52,SSE,157,0.0,3.4,63,0.00,,,0.00,WUHU21623XXSP,2013-04-11 15:13:00,
2013-04-11 11:18:00,83.5,69.5,29.51,SE,135,0.0,0.0,63,0.00,,,0.00,WUHU21623XXSP,2013-04-11 15:18:00,
2013-04-11 11:23:00,84.0,69.6,29.51,South,180,0.0,0.0,62,0.00,,,0.00,WUHU21623XXSP,2013-04-11 15:23:00,
2013-04-11 11:28:00,84.0,69.2,29.51,SE,135,0.0,5.1,61,0.00,,,0.00,WUHU21623XXSP,2013-04-11 15:28:00,
2013-04-11 11:33:00,84.0,69.2,29.51,SSE,157,0.0,5.1,61,0.00,,,0.00,WUHU21623XXSP,2013-04-11 15:33:00,
2013-04-11 11:38:00,83.5,68.6,29.51,SW,225,0.0,2.5,61,0.00,,,0.00,WUHU21623XXSP,2013-04-11 15:38:00,
2013-04-11 11:43:00,83.8,69.4,29.51,SW,225,0.0,2.5,62,0.00,,,0.00,WUHU21623XXSP,2013-04-11 15:43:00,
2013-04-11 11:48:00,85.6,70.2,29.50,ESE,112,0.0,1.1,60,0.00,,,0.00,WUHU21623XXSP,2013-04-11 15:48:00,
2013-04-11 11:53:00,86.2,69.6,29.50,SSE,157,0.0,2.2,58,0.00,,,0.00,WUHU21623XXSP,2013-04-11 15:53:00,
2013-04-11 11:58:00,85.8,69.3,29.50,West,270,0.0,2.2,58,0.00,,,0.00,WUHU21623XXSP,2013-04-11 15:58:00,
2013-04-11 12:03:00,85.8,68.8,29.50,SW,225,0.0,2.5,57,0.00,,,0.00,WUHU21623XXSP,2013-04-11 16:03:00,
2013-04-11 12:08:00,86.9,69.3,29.50,SSE,157,0.0,2.5,56,0.00,,,0.00,WUHU21623XXSP,2013-04-11 16:08:00,
2013-04-11 12:13:00,87.6,69.4,29.50,SE,135,0.0,4.5,55,0.00,,,0.00,WUHU21623XXSP,2013-04-11 16:13:00,
2013-04-11 12:18:00,88.0,69.2,29.50,South,180,0.0,4.5,54,0.00,,,0.00,WUHU21623XXSP,2013-04-11 16:18:00,
2013-04-11 12:23:00,87.1,68.9,29.50,SE,135,0.0,2.9,55,0.00,,,0.00,WUHU21623XXSP,2013-04-11 16:23:00,
2013-04-11 12:28:00,86.4,68.8,29.50,SSE,157,0.0,3.4,56,0.00,,,0.00,WUHU21623XXSP,2013-04-11 16:28:00,
2013-04-11 12:33:00,86.0,68.4,29.50,SSE,157,0.0,3.4,56,0.00,,,0.00,WUHU21623XXSP,2013-04-11 16:33:00,
2013-04-11 12:38:00,86.7,68.6,29.50,East,90,0.0,6.5,55,0.00,,,0.00,WUHU21623XXSP,2013-04-11 16:38:00,
2013-04-11 12:43:00,87.1,68.4,29.50,SE,135,0.0,6.5,54,0.00,,,0.00,WUHU21623XXSP,2013-04-11 16:43:00,
2013-04-11 12:49:00,86.0,68.4,29.49,SSE,157,0.0,6.5,56,0.00,,,0.00,WUHU21623XXSP,2013-04-11 16:49:00,
2013-04-11 12:54:00,85.8,68.3,29.49,WSW,247,0.0,4.9,56,0.00,,,0.00,WUHU21623XXSP,2013-04-11 16:54:00,
2013-04-11 12:59:00,84.7,67.8,29.49,WSW,247,0.0,4.9,57,0.00,,,0.00,WUHU21623XXSP,2013-04-11 16:59:00,
2013-04-11 13:04:00,83.1,67.3,29.49,WSW,247,1.1,4.9,59,0.00,,,0.00,WUHU21623XXSP,2013-04-11 17:04:00,
2013-04-11 13:09:00,82.6,67.3,29.49,SE,135,0.0,4.9,60,0.00,,,0.00,WUHU21623XXSP,2013-04-11 17:09:00,
2013-04-11 13:14:00,82.0,67.2,29.49,SW,225,0.0,1.6,61,0.00,,,0.00,WUHU21623XXSP,2013-04-11 17:14:00,
2013-04-11 13:19:00,82.2,67.4,29.49,SSW,202,0.0,1.6,61,0.00,,,0.00,WUHU21623XXSP,2013-04-11 17:19:00,
2013-04-11 13:24:00,81.1,66.9,29.49,SE,135,0.0,0.0,62,0.00,,,0.00,WUHU21623XXSP,2013-04-11 17:24:00,
2013-04-11 13:29:00,80.4,66.7,29.49,SW,225,0.0,0.0,63,0.00,,,0.00,WUHU21623XXSP,2013-04-11 17:29:00,
2013-04-11 13:34:00,81.0,67.2,29.48,SSW,202,0.0,0.0,63,0.00,,,0.00,WUHU21623XXSP,2013-04-11 17:34:00,
2013-04-11 13:39:00,81.7,67.4,29.47,South,180,0.0,0.0,62,0.00,,,0.00,WUHU21623XXSP,2013-04-11 17:39:00,
2013-04-11 13:44:00,84.0,69.2,29.47,SSE,157,0.0,5.1,61,0.00,,,0.00,WUHU21623XXSP,2013-04-11 17:44:00,
2013-04-11 13:49:00,85.6,69.2,29.47,SSE,157,0.0,5.1,58,0.00,,,0.00,WUHU21623XXSP,2013-04-11 17:49:00,
2013-04-11 13:54:00,85.6,68.6,29.47,SSE,157,0.0,1.6,57,0.00,,,0.00,WUHU21623XXSP,2013-04-11 17:54:00,
2013-04-11 13:59:00,86.5,68.4,29.47,SSW,202,0.0,0.9,55,0.00,,,0.00,WUHU21623XXSP,2013-04-11 17:59:00,
2013-04-11 14:04:00,86.9,68.8,29.46,SSW,202,0.0,0.9,55,0.00,,,0.00,WUHU21623XXSP,2013-04-11 18:04:00,
2013-04-11 14:09:00,88.3,69.0,29.46,SW,225,0.0,0.0,53,0.00,,,0.00,WUHU21623XXSP,2013-04-11 18:09:00,
2013-04-11 14:14:00,90.7,70.1,29.46,SSE,157,0.0,0.0,51,0.00,,,0.00,WUHU21623XXSP,2013-04-11 18:14:00,
2013-04-11 14:19:00,91.9,70.6,29.45,SSE,157,0.0,0.0,50,0.00,,,0.00,WUHU21623XXSP,2013-04-11 18:19:00,
2013-04-11 14:24:00,91.9,70.0,29.45,SSE,157,0.0,2.0,49,0.00,,,0.00,WUHU21623XXSP,2013-04-11 18:24:00,
2013-04-11 14:29:00,91.9,69.3,29.45,SSW,202,0.0,2.0,48,0.00,,,0.00,WUHU21623XXSP,2013-04-11 18:29:00,
2013-04-11 14:34:00,91.8,69.2,29.45,SE,135,2.7,2.7,48,0.00,,,0.00,WUHU21623XXSP,2013-04-11 18:34:00,
2013-04-11 14:39:00,90.0,68.2,29.45,South,180,0.0,4.9,49,0.00,,,0.00,WUHU21623XXSP,2013-04-11 18:39:00,
2013-04-11 14:44:00,89.4,68.4,29.45,SSW,202,0.0,4.9,50,0.00,,,0.00,WUHU21623XXSP,2013-04-11 18:44:00,
2013-04-11 14:49:00,89.4,68.4,29.44,NW,315,0.0,0.0,50,0.00,,,0.00,WUHU21623XXSP,2013-04-11 18:49:00,
2013-04-11 14:54:00,90.0,68.2,29.44,SW,225,0.0,0.0,49,0.00,,,0.00,WUHU21623XXSP,2013-04-11 18:54:00,
2013-04-11 14:59:00,91.0,68.5,29.43,South,180,0.0,0.0,48,0.00,,,0.00,WUHU21623XXSP,2013-04-11 18:59:00,
2013-04-11 15:04:00,90.9,68.4,29.43,West,270,0.0,6.0,48,0.00,,,0.00,WUHU21623XXSP,2013-04-11 19:04:00,
2013-04-11 15:09:00,90.5,68.7,29.42,SW,225,0.0,6.0,49,0.00,,,0.00,WUHU21623XXSP,2013-04-11 19:09:00,
2013-04-11 15:14:00,91.0,68.5,29.42,South,180,0.0,0.0,48,0.00,,,0.00,WUHU21623XXSP,2013-04-11 19:14:00,
2013-04-11 15:19:00,91.4,68.2,29.42,SSW,202,0.0,1.3,47,0.00,,,0.00,WUHU21623XXSP,2013-04-11 19:19:00,
2013-04-11 15:24:00,90.7,68.2,29.41,South,180,0.0,4.7,48,0.00,,,0.00,WUHU21623XXSP,2013-04-11 19:24:00,
2013-04-11 15:29:00,90.0,68.2,29.40,SE,135,0.0,4.7,49,0.00,,,0.00,WUHU21623XXSP,2013-04-11 19:29:00,
2013-04-11 15:34:00,89.6,67.9,29.40,SE,135,0.0,4.7,49,0.00,,,0.00,WUHU21623XXSP,2013-04-11 19:34:00,
2013-04-11 15:39:00,90.1,68.4,29.39,SE,135,0.0,2.2,49,0.00,,,0.00,WUHU21623XXSP,2013-04-11 19:39:00,
2013-04-11 15:44:00,91.4,68.9,29.39,SSW,202,0.0,2.2,48,0.00,,,0.00,WUHU21623XXSP,2013-04-11 19:44:00,
2013-04-11 15:49:00,91.9,68.7,29.39,SSW,202,0.0,0.0,47,0.00,,,0.00,WUHU21623XXSP,2013-04-11 19:49:00,
2013-04-11 15:54:00,91.2,68.1,29.38,SW,225,0.0,2.7,47,0.00,,,0.00,WUHU21623XXSP,2013-04-11 19:54:00,
2013-04-11 15:59:00,89.8,68.1,29.38,SSE,157,0.0,2.7,49,0.00,,,0.00,WUHU21623XXSP,2013-04-11 19:59:00,
2013-04-11 16:04:00,88.2,67.2,29.38,South,180,0.0,1.1,50,0.00,,,0.00,WUHU21623XXSP,2013-04-11 20:04:00,
2013-04-11 16:09:00,87.1,66.8,29.38,SSW,202,0.0,1.1,51,0.00,,,0.00,WUHU21623XXSP,2013-04-11 20:09:00,
2013-04-11 16:14:00,86.2,66.5,29.37,SE,135,0.0,1.1,52,0.00,,,0.00,WUHU21623XXSP,2013-04-11 20:14:00,
2013-04-11 16:19:00,85.3,65.9,29.37,SSE,157,0.0,4.0,53,0.00,,,0.00,WUHU21623XXSP,2013-04-11 20:19:00,
2013-04-11 16:25:00,84.4,65.9,29.36,SE,135,0.0,4.0,54,0.00,,,0.00,WUHU21623XXSP,2013-04-11 20:25:00,
2013-04-11 16:30:00,84.6,66.6,29.36,South,180,0.0,0.0,55,0.00,,,0.00,WUHU21623XXSP,2013-04-11 20:30:00,
2013-04-11 16:35:00,84.7,66.3,29.36,South,180,0.0,4.3,54,0.00,,,0.00,WUHU21623XXSP,2013-04-11 20:35:00,
2013-04-11 16:40:00,85.3,66.7,29.35,East,90,0.0,4.9,54,0.00,,,0.00,WUHU21623XXSP,2013-04-11 20:40:00,
2013-04-11 16:45:00,85.6,66.5,29.35,SSE,157,0.0,4.9,53,0.00,,,0.00,WUHU21623XXSP,2013-04-11 20:45:00,
2013-04-11 16:50:00,85.6,66.5,29.34,South,180,3.8,6.3,53,0.00,,,0.00,WUHU21623XXSP,2013-04-11 20:50:00,
2013-04-11 16:55:00,85.3,66.2,29.34,SSE,157,0.0,6.3,53,0.00,,,0.00,WUHU21623XXSP,2013-04-11 20:55:00,
2013-04-11 17:00:00,84.9,65.9,29.34,SW,225,0.0,3.8,53,0.00,,,0.00,WUHU21623XXSP,2013-04-11 21:00:00,
2013-04-11 17:05:00,84.0,65.6,29.34,SE,135,0.0,3.8,54,0.00,,,0.00,WUHU21623XXSP,2013-04-11 21:05:00,
2013-04-11 17:10:00,83.5,65.6,29.34,SSW,202,0.0,4.9,55,0.00,,,0.00,WUHU21623XXSP,2013-04-11 21:10:00,
2013-04-11 17:15:00,83.1,65.7,29.34,SSW,202,0.0,4.9,56,0.00,,,0.00,WUHU21623XXSP,2013-04-11 21:15:00,
2013-04-11 17:20:00,82.9,65.6,29.34,West,270,0.0,0.0,56,0.00,,,0.00,WUHU21623XXSP,2013-04-11 21:20:00,
2013-04-11 17:25:00,82.6,65.7,29.34,South,180,0.0,4.0,57,0.00,,,0.00,WUHU21623XXSP,2013-04-11 21:25:00,
2013-04-11 17:30:00,82.2,65.4,29.34,South,180,0.0,4.0,57,0.00,,,0.00,WUHU21623XXSP,2013-04-11 21:30:00,
2013-04-11 17:35:00,82.2,65.4,29.34,SSE,157,0.0,0.2,57,0.00,,,0.00,WUHU21623XXSP,2013-04-11 21:35:00,
2013-04-11 17:40:00,82.0,65.2,29.34,SSW,202,0.0,1.6,57,0.00,,,0.00,WUHU21623XXSP,2013-04-11 21:40:00,
2013-04-11 17:45:00,81.9,65.0,29.34,SW,225,0.0,8.1,57,0.00,,,0.00,WUHU21623XXSP,2013-04-11 21:45:00,
2013-04-11 17:50:00,81.3,65.1,29.33,ESE,112,1.8,8.1,58,0.00,,,0.00,WUHU21623XXSP,2013-04-11 21:50:00,
2013-04-11 17:55:00,81.1,64.9,29.33,WSW,247,0.0,3.1,58,0.00,,,0.00,WUHU21623XXSP,2013-04-11 21:55:00,
2013-04-11 18:00:00,81.0,65.3,29.33,South,180,0.0,1.1,59,0.00,,,0.00,WUHU21623XXSP,2013-04-11 22:00:00,
2013-04-11 18:05:00,80.6,65.0,29.33,SSE,157,0.0,0.0,59,0.00,,,0.00,WUHU21623XXSP,2013-04-11 22:05:00,
2013-04-11 18:10:00,80.4,65.3,29.33,SE,135,0.0,3.6,60,0.00,,,0.00,WUHU21623XXSP,2013-04-11 22:10:00,
2013-04-11 18:15:00,80.1,65.0,29.33,SW,225,0.0,3.6,60,0.00,,,0.00,WUHU21623XXSP,2013-04-11 22:15:00,
2013-04-11 18:20:00,79.5,64.9,29.33,SW,225,1.8,1.8,61,0.00,,,0.00,WUHU21623XXSP,2013-04-11 22:20:00,
2013-04-11 18:25:00,79.2,65.0,29.32,SW,225,1.6,2.7,62,0.00,,,0.00,WUHU21623XXSP,2013-04-11 22:25:00,
2013-04-11 18:30:00,78.6,65.0,29.33,SW,225,0.0,4.5,63,0.00,,,0.00,WUHU21623XXSP,2013-04-11 22:30:00,
2013-04-11 18:35:00,77.7,64.5,29.33,SE,135,0.0,4.5,64,0.00,,,0.00,WUHU21623XXSP,2013-04-11 22:35:00,
2013-04-11 18:40:00,77.7,64.5,29.32,SSW,202,0.0,0.0,64,0.00,,,0.00,WUHU21623XXSP,2013-04-11 22:40:00,
2013-04-11 18:45:00,77.9,64.7,29.32,SSE,157,0.0,0.0,64,0.00,,,0.00,WUHU21623XXSP,2013-04-11 22:45:00,
2013-04-11 18:50:00,78.1,64.9,29.32,SW,225,0.0,2.9,64,0.00,,,0.00,WUHU21623XXSP,2013-04-11 22:50:00,
2013-04-11 18:55:00,78.3,65.1,29.32,SW,225,0.0,2.9,64,0.00,,,0.00,WUHU21623XXSP,2013-04-11 22:55:00,
2013-04-11 19:00:00,78.3,65.1,29.32,SSW,202,0.0,0.0,64,0.00,,,0.00,WUHU21623XXSP,2013-04-11 23:00:00,
2013-04-11 19:05:00,78.1,64.9,29.32,SE,135,0.0,0.0,64,0.00,,,0.00,WUHU21623XXSP,2013-04-11 23:05:00,
2013-04-11 19:10:00,77.7,65.0,29.32,SSW,202,0.0,0.0,65,0.00,,,0.00,WUHU21623XXSP,2013-04-11 23:10:00,
2013-04-11 19:15:00,77.5,64.8,29.32,South,180,0.0,0.0,65,0.00,,,0.00,WUHU21623XXSP,2013-04-11 23:15:00,
2013-04-11 19:20:00,77.2,64.9,29.32,SW,225,0.0,1.6,66,0.00,,,0.00,WUHU21623XXSP,2013-04-11 23:20:00,
2013-04-11 19:26:00,76.8,64.6,29.31,SSE,157,0.0,4.7,66,0.00,,,0.00,WUHU21623XXSP,2013-04-11 23:26:00,
2013-04-11 19:31:00,76.8,65.0,29.32,SSE,157,0.0,5.6,67,0.00,,,0.00,WUHU21623XXSP,2013-04-11 23:31:00,
2013-04-11 19:36:00,76.6,64.8,29.32,SW,225,0.0,5.6,67,0.00,,,0.00,WUHU21623XXSP,2013-04-11 23:36:00,
2013-04-11 19:41:00,76.3,64.9,29.32,SSE,157,0.0,0.0,68,0.00,,,0.00,WUHU21623XXSP,2013-04-11 23:41:00,
2013-04-11 19:46:00,76.1,64.8,29.32,West,270,0.0,1.1,68,0.00,,,0.00,WUHU21623XXSP,2013-04-11 23:46:00,
2013-04-11 19:51:00,75.9,65.0,29.32,SSE,157,0.4,3.6,69,0.00,,,0.00,WUHU21623XXSP,2013-04-11 23:51:00,
2013-04-11 19:56:00,75.7,64.8,29.32,SSE,157,0.0,3.6,69,0.00,,,0.00,WUHU21623XXSP,2013-04-11 23:56:00,
2013-04-11 20:01:00,75.6,65.1,29.32,SW,225,0.0,5.8,70,0.00,,,0.00,WUHU21623XXSP,2013-04-12 00:01:00,
2013-04-11 20:06:00,75.0,65.0,29.32,SE,135,0.0,5.8,71,0.00,,,0.00,WUHU21623XXSP,2013-04-12 00:06:00,
2013-04-11 20:11:00,74.5,64.9,29.33,SE,135,0.0,4.5,72,0.00,,,0.00,WUHU21623XXSP,2013-04-12 00:11:00,
2013-04-11 20:16:00,74.1,65.3,29.33,SW,225,2.5,6.0,74,0.00,,,0.00,WUHU21623XXSP,2013-04-12 00:16:00,
2013-04-11 20:22:00,73.8,65.0,29.33,SE,135,2.0,7.6,74,0.00,,,0.00,WUHU21623XXSP,2013-04-12 00:22:00,
2013-04-11 20:27:00,73.6,65.6,29.33,SE,135,0.0,11.0,76,0.00,,,0.00,WUHU21623XXSP,2013-04-12 00:27:00,
2013-04-11 20:32:00,73.2,65.6,29.32,SW,225,3.8,11.0,77,0.00,,,0.00,WUHU21623XXSP,2013-04-12 00:32:00,
2013-04-11 20:37:00,72.7,65.4,29.32,SSE,157,0.0,8.3,78,0.00,,,0.00,WUHU21623XXSP,2013-04-12 00:37:00,
2013-04-11 20:42:00,72.3,65.1,29.32,West,270,0.0,8.3,78,0.00,,,0.00,WUHU21623XXSP,2013-04-12 00:42:00,
2013-04-11 20:47:00,72.1,65.3,29.31,ENE,67,0.0,4.7,79,0.00,,,0.00,WUHU21623XXSP,2013-04-12 00:47:00,
2013-04-11 20:52:00,71.8,64.9,29.31,ESE,112,0.0,7.4,79,0.00,,,0.00,WUHU21623XXSP,2013-04-12 00:52:00,
2013-04-11 20:57:00,71.4,64.9,29.31,SSE,157,0.0,7.4,80,0.00,,,0.00,WUHU21623XXSP,2013-04-12 00:57:00,
2013-04-11 21:02:00,71.2,65.1,29.31,SW,225,0.0,4.0,81,0.00,,,0.00,WUHU21623XXSP,2013-04-12 01:02:00,
2013-04-11 21:07:00,71.1,64.9,29.31,NE,45,0.0,4.0,81,0.00,,,0.00,WUHU21623XXSP,2013-04-12 01:07:00,
2013-04-11 21:12:00,70.9,65.1,29.31,South,180,0.0,5.8,82,0.00,,,0.00,WUHU21623XXSP,2013-04-12 01:12:00,
2013-04-11 21:17:00,70.9,65.1,29.32,NNW,337,0.0,5.8,82,0.00,,,0.00,WUHU21623XXSP,2013-04-12 01:17:00,
2013-04-11 21:22:00,70.7,64.9,29.31,WSW,247,0.0,7.2,82,0.00,,,0.00,WUHU21623XXSP,2013-04-12 01:22:00,
2013-04-11 21:27:00,70.5,64.7,29.31,SSW,202,0.0,7.2,82,0.00,,,0.00,WUHU21623XXSP,2013-04-12 01:27:00,
2013-04-11 21:32:00,70.3,64.9,29.31,SE,135,0.0,2.7,83,0.00,,,0.00,WUHU21623XXSP,2013-04-12 01:32:00,
2013-04-11 21:37:00,70.2,64.4,29.31,SSE,157,0.0,2.7,82,0.00,,,0.00,WUHU21623XXSP,2013-04-12 01:37:00,
2013-04-11 21:42:00,70.2,64.7,29.32,South,180,0.0,5.8,83,0.00,,,0.00,WUHU21623XXSP,2013-04-12 01:42:00,
2013-04-11 21:47:00,70.2,64.7,29.32,SE,135,0.0,5.8,83,0.00,,,0.00,WUHU21623XXSP,2013-04-12 01:47:00,
2013-04-11 21:52:00,70.0,64.5,29.32,South,180,0.0,0.9,83,0.00,,,0.00,WUHU21623XXSP,2013-04-12 01:52:00,
2013-04-11 21:57:00,70.0,64.5,29.32,SW,225,0.0,0.9,83,0.00,,,0.00,WUHU21623XXSP,2013-04-12 01:57:00,
2013-04-11 22:02:00,70.0,64.9,29.33,SSE,157,0.0,2.7,84,0.00,,,0.00,WUHU21623XXSP,2013-04-12 02:02:00,
2013-04-11 22:07:00,70.2,65.0,29.33,SSE,157,0.0,5.6,84,0.00,,,0.00,WUHU21623XXSP,2013-04-12 02:07:00,
2013-04-11 22:12:00,70.2,65.0,29.32,SE,135,0.0,5.6,84,0.00,,,0.00,WUHU21623XXSP,2013-04-12 02:12:00,
2013-04-11 22:17:00,70.3,65.6,29.32,SE,135,0.0,2.9,85,0.00,,,0.00,WUHU21623XXSP,2013-04-12 02:17:00,
2013-04-11 22:22:00,70.3,65.6,29.32,SSW,202,0.0,2.9,85,0.00,,,0.00,WUHU21623XXSP,2013-04-12 02:22:00,
2013-04-11 22:28:00,70.3,65.6,29.32,SE,135,0.0,2.7,85,0.00,,,0.00,WUHU21623XXSP,2013-04-12 02:28:00,
2013-04-11 22:33:00,70.3,65.6,29.32,SE,135,0.0,2.7,85,0.00,,,0.00,WUHU21623XXSP,2013-04-12 02:33:00,
2013-04-11 22:38:00,70.3,65.9,29.32,SSW,202,0.0,5.4,86,0.00,,,0.00,WUHU21623XXSP,2013-04-12 02:38:00,
2013-04-11 22:43:00,70.2,65.7,29.32,SW,225,0.9,5.4,86,0.00,,,0.00,WUHU21623XXSP,2013-04-12 02:43:00,
2013-04-11 22:48:00,70.2,65.7,29.32,South,180,7.2,7.2,86,0.00,,,0.00,WUHU21623XXSP,2013-04-12 02:48:00,
2013-04-11 22:53:00,70.2,65.7,29.32,SE,135,1.1,7.2,86,0.00,,,0.00,WUHU21623XXSP,2013-04-12 02:53:00,
2013-04-11 22:58:00,70.2,65.7,29.32,ENE,67,0.0,6.7,86,0.00,,,0.00,WUHU21623XXSP,2013-04-12 02:58:00,
2013-04-11 23:03:00,70.2,65.7,29.32,SW,225,0.0,6.7,86,0.00,,,0.00,WUHU21623XXSP,2013-04-12 03:03:00,
2013-04-11 23:08:00,70.2,65.7,29.32,SSW,202,0.0,8.1,86,0.00,,,0.00,WUHU21623XXSP,2013-04-12 03:08:00,
2013-04-11 23:13:00,70.2,65.7,29.32,SSE,157,0.0,8.1,86,0.00,,,0.00,WUHU21623XXSP,2013-04-12 03:13:00,
2013-04-11 23:18:00,70.2,66.1,29.32,SW,225,0.0,8.7,87,0.00,,,0.00,WUHU21623XXSP,2013-04-12 03:18:00,
2013-04-11 23:23:00,70.2,65.7,29.32,SSE,157,0.0,9.4,86,0.00,,,0.00,WUHU21623XXSP,2013-04-12 03:23:00,
2013-04-11 23:28:00,70.2,66.1,29.32,SW,225,0.0,9.4,87,0.00,,,0.00,WUHU21623XXSP,2013-04-12 03:28:00,
2013-04-11 23:33:00,70.2,66.1,29.32,SSW,202,0.0,12.8,87,0.00,,,0.00,WUHU21623XXSP,2013-04-12 03:33:00,
2013-04-11 23:38:00,70.2,66.1,29.32,SW,225,0.0,12.8,87,0.00,,,0.00,WUHU21623XXSP,2013-04-12 03:38:00,
2013-04-11 23:43:00,70.0,65.9,29.32,ESE,112,2.0,5.1,87,0.00,,,0.00,WUHU21623XXSP,2013-04-12 03:43:00,
2013-04-11 23:48:00,70.0,65.9,29.32,NW,315,0.0,12.8,87,0.00,,,0.00,WUHU21623XXSP,2013-04-12 03:48:00,
2013-04-11 23:53:00,70.0,65.9,29.32,South,180,0.0,12.8,87,0.00,,,0.00,WUHU21623XXSP,2013-04-12 03:53:00,
2013-04-11 23:58:00,69.8,65.7,29.32,SE,135,0.0,5.6,87,0.00,,,0.00,WUHU21623XXSP,2013-04-12 03:58:00,